Time,TemperatureF,DewpointF,PressureIn,WindDirection,WindDirectionDegrees,WindSpeedMPH,WindSpeedGustMPH,Humidity,HourlyPrecipIn,Conditions,Clouds,dailyrainin,SolarRadiationWatts/m^2,SoftwareType,DateUTC
2013-07-02 00:23:00,48.0,43.0,-100.00,NW,314,5.0,7.0,84,0.00,,,0.04,0.000000,,2013-07-02 06:23:00,
2013-07-02 00:34:00,48.0,43.0,-100.00,NW,314,5.0,7.0,84,0.00,,,0.04,0.000000,,2013-07-02 06:34:00,
2013-07-02 00:43:00,48.0,43.0,-100.00,NW,314,5.0,7.0,84,0.00,,,0.04,0.000000,,2013-07-02 06:43:00,
2013-07-02 00:53:00,48.0,43.0,-100.00,NW,314,5.0,7.0,84,0.00,,,0.04,0.000000,,2013-07-02 06:53:00,
2013-07-02 01:22:00,44.0,42.0,-100.00,SSW,202,2.0,10.0,92,0.00,,,0.04,0.000000,,2013-07-02 07:22:00,
2013-07-02 01:34:00,44.0,42.0,-100.00,SSW,202,2.0,10.0,92,0.00,,,0.04,0.000000,,2013-07-02 07:34:00,
2013-07-02 01:44:00,44.0,42.0,-100.00,SSW,202,2.0,10.0,92,0.00,,,0.04,0.000000,,2013-07-02 07:44:00,
2013-07-02 01:53:00,44.0,42.0,-100.00,SSW,202,2.0,10.0,92,0.00,,,0.04,0.000000,,2013-07-02 07:53:00,
2013-07-02 02:22:00,44.0,42.0,-100.00,WNW,291,3.0,5.0,93,0.00,,,0.04,0.000000,,2013-07-02 08:22:00,
2013-07-02 02:33:00,44.0,42.0,-100.00,WNW,291,3.0,5.0,93,0.00,,,0.04,0.000000,,2013-07-02 08:33:00,
2013-07-02 02:44:00,44.0,42.0,-100.00,WNW,291,3.0,5.0,93,0.00,,,0.04,0.000000,,2013-07-02 08:44:00,
2013-07-02 02:53:00,44.0,42.0,-100.00,WNW,291,3.0,5.0,93,0.00,,,0.04,0.000000,,2013-07-02 08:53:00,
2013-07-02 03:23:00,45.0,42.0,-100.00,NW,313,6.0,9.0,90,0.00,,,0.04,0.000000,,2013-07-02 09:23:00,
2013-07-02 03:33:00,45.0,42.0,-100.00,NW,313,6.0,9.0,90,0.00,,,0.04,0.000000,,2013-07-02 09:33:00,
2013-07-02 03:43:00,45.0,42.0,-100.00,NW,313,6.0,9.0,90,0.00,,,0.04,0.000000,,2013-07-02 09:43:00,
2013-07-02 03:52:00,45.0,42.0,-100.00,NW,313,6.0,9.0,90,0.00,,,0.04,0.000000,,2013-07-02 09:52:00,
2013-07-02 04:22:00,46.0,41.0,-100.00,NW,307,5.0,8.0,83,0.00,,,0.04,0.000000,,2013-07-02 10:22:00,
2013-07-02 04:33:00,46.0,41.0,-100.00,NW,307,5.0,8.0,83,0.00,,,0.04,0.000000,,2013-07-02 10:33:00,
2013-07-02 04:43:00,46.0,41.0,-100.00,NW,307,5.0,8.0,83,0.00,,,0.04,0.000000,,2013-07-02 10:43:00,
2013-07-02 04:52:00,46.0,41.0,-100.00,NW,307,5.0,8.0,83,0.00,,,0.04,0.000000,,2013-07-02 10:52:00,
2013-07-02 05:22:00,45.0,41.0,-100.00,NNW,335,3.0,7.0,86,0.00,,,0.04,0.000000,,2013-07-02 11:22:00,
2013-07-02 05:33:00,45.0,41.0,-100.00,NNW,335,3.0,7.0,86,0.00,,,0.04,0.000000,,2013-07-02 11:33:00,
2013-07-02 05:42:00,45.0,41.0,-100.00,NNW,335,3.0,7.0,86,0.00,,,0.04,0.000000,,2013-07-02 11:42:00,
2013-07-02 05:52:00,45.0,41.0,-100.00,NNW,335,3.0,7.0,86,0.00,,,0.04,0.000000,,2013-07-02 11:52:00,
2013-07-02 06:23:00,44.0,41.0,-100.00,SW,231,1.0,5.0,88,0.00,,,0.04,4.000000,,2013-07-02 12:23:00,
2013-07-02 06:33:00,44.0,41.0,-100.00,SW,231,1.0,5.0,88,0.00,,,0.04,4.000000,,2013-07-02 12:33:00,
2013-07-02 06:43:00,44.0,41.0,-100.00,SW,231,1.0,5.0,88,0.00,,,0.04,4.000000,,2013-07-02 12:43:00,
2013-07-02 06:52:00,44.0,41.0,-100.00,SW,231,1.0,5.0,88,0.00,,,0.04,4.000000,,2013-07-02 12:52:00,
2013-07-02 07:34:00,48.0,42.0,-100.00,South,172,1.0,3.0,81,0.00,,,0.04,63.000000,,2013-07-02 13:34:00,
2013-07-02 07:43:00,48.0,42.0,-100.00,South,172,1.0,3.0,81,0.00,,,0.04,63.000000,,2013-07-02 13:43:00,
2013-07-02 07:52:00,48.0,42.0,-100.00,South,172,1.0,3.0,81,0.00,,,0.04,63.000000,,2013-07-02 13:52:00,
2013-07-02 08:33:00,54.0,45.0,-100.00,South,185,2.0,4.0,71,0.00,,,0.04,287.000000,,2013-07-02 14:33:00,
2013-07-02 08:43:00,54.0,45.0,-100.00,South,185,2.0,4.0,71,0.00,,,0.04,287.000000,,2013-07-02 14:43:00,
2013-07-02 08:53:00,54.0,45.0,-100.00,South,185,2.0,4.0,71,0.00,,,0.04,287.000000,,2013-07-02 14:53:00,
2013-07-02 09:22:00,59.0,47.0,-100.00,SE,132,4.0,6.0,65,0.00,,,0.04,482.000000,,2013-07-02 15:22:00,
2013-07-02 09:33:00,59.0,47.0,-100.00,SE,132,4.0,6.0,65,0.00,,,0.04,482.000000,,2013-07-02 15:33:00,
2013-07-02 09:44:00,59.0,47.0,-100.00,SE,132,4.0,6.0,65,0.00,,,0.04,482.000000,,2013-07-02 15:44:00,
2013-07-02 09:53:00,59.0,47.0,-100.00,SE,132,4.0,6.0,65,0.00,,,0.04,482.000000,,2013-07-02 15:53:00,
2013-07-02 10:33:00,64.0,42.0,-100.00,SE,124,6.0,11.0,44,0.00,,,0.04,667.000000,,2013-07-02 16:33:00,
2013-07-02 10:43:00,64.0,42.0,-100.00,SE,124,6.0,11.0,44,0.00,,,0.04,667.000000,,2013-07-02 16:43:00,
2013-07-02 10:52:00,64.0,42.0,-100.00,SE,124,6.0,11.0,44,0.00,,,0.04,667.000000,,2013-07-02 16:52:00,
2013-07-02 11:33:00,68.0,40.0,-100.00,SE,125,5.0,12.0,36,0.00,,,0.04,834.000000,,2013-07-02 17:33:00,
2013-07-02 11:43:00,68.0,40.0,-100.00,SE,125,5.0,12.0,36,0.00,,,0.04,834.000000,,2013-07-02 17:43:00,
2013-07-02 11:53:00,68.0,40.0,-100.00,SE,125,5.0,12.0,36,0.00,,,0.04,834.000000,,2013-07-02 17:53:00,
2013-07-02 12:23:00,66.0,34.0,-100.00,NE,56,3.0,11.0,31,0.00,,,0.04,832.000000,,2013-07-02 18:23:00,
2013-07-02 12:34:00,66.0,34.0,-100.00,NE,56,3.0,11.0,31,0.00,,,0.04,832.000000,,2013-07-02 18:34:00,
2013-07-02 12:43:00,66.0,34.0,-100.00,NE,56,3.0,11.0,31,0.00,,,0.04,832.000000,,2013-07-02 18:43:00,
2013-07-02 12:53:00,66.0,34.0,-100.00,NE,56,3.0,11.0,31,0.00,,,0.04,832.000000,,2013-07-02 18:53:00,
2013-07-02 13:34:00,73.0,34.0,-100.00,East,84,5.0,13.0,24,0.00,,,0.04,793.000000,,2013-07-02 19:34:00,
2013-07-02 13:43:00,73.0,34.0,-100.00,East,84,5.0,13.0,24,0.00,,,0.04,793.000000,,2013-07-02 19:43:00,
2013-07-02 13:53:00,73.0,34.0,-100.00,East,84,5.0,13.0,24,0.00,,,0.04,793.000000,,2013-07-02 19:53:00,
2013-07-02 14:22:00,75.0,30.0,-100.00,ENE,61,7.0,17.0,19,0.00,,,0.04,1012.000000,,2013-07-02 20:22:00,
2013-07-02 14:33:00,75.0,30.0,-100.00,ENE,61,7.0,17.0,19,0.00,,,0.04,1012.000000,,2013-07-02 20:33:00,
2013-07-02 14:43:00,75.0,30.0,-100.00,ENE,61,7.0,17.0,19,0.00,,,0.04,1012.000000,,2013-07-02 20:43:00,
2013-07-02 14:52:00,75.0,30.0,-100.00,ENE,61,7.0,17.0,19,0.00,,,0.04,1012.000000,,2013-07-02 20:52:00,
2013-07-02 15:22:00,71.0,32.0,-100.00,NE,45,6.0,16.0,24,0.00,,,0.04,682.000000,,2013-07-02 21:22:00,
2013-07-02 15:33:00,71.0,32.0,-100.00,NE,45,6.0,16.0,24,0.00,,,0.04,682.000000,,2013-07-02 21:33:00,
2013-07-02 15:44:00,71.0,32.0,-100.00,NE,45,6.0,16.0,24,0.00,,,0.04,682.000000,,2013-07-02 21:44:00,
2013-07-02 15:52:00,71.0,32.0,-100.00,NE,45,6.0,16.0,24,0.00,,,0.04,682.000000,,2013-07-02 21:52:00,
2013-07-02 16:34:00,67.0,35.0,-100.00,East,82,7.0,15.0,31,0.00,,,0.04,328.000000,,2013-07-02 22:34:00,
2013-07-02 16:43:00,67.0,35.0,-100.00,East,82,7.0,15.0,31,0.00,,,0.04,328.000000,,2013-07-02 22:43:00,
2013-07-02 16:53:00,67.0,35.0,-100.00,East,82,7.0,15.0,31,0.00,,,0.04,328.000000,,2013-07-02 22:53:00,
2013-07-02 17:33:00,70.0,38.0,-100.00,East,80,9.0,19.0,31,0.00,,,0.04,658.000000,,2013-07-02 23:33:00,
2013-07-02 17:44:00,70.0,38.0,-100.00,East,80,9.0,19.0,31,0.00,,,0.04,658.000000,,2013-07-02 23:44:00,
2013-07-02 17:52:00,70.0,38.0,-100.00,East,80,9.0,19.0,31,0.00,,,0.04,658.000000,,2013-07-02 23:52:00,
2013-07-02 20:39:00,57.0,45.0,-100.00,SSE,161,4.0,10.0,63,-99.99,,,0.11,168.000000,,2013-07-03 02:39:00,
2013-07-02 20:55:00,57.0,45.0,-100.00,SSE,161,4.0,10.0,63,-99.99,,,0.11,168.000000,,2013-07-03 02:55:00,
2013-07-02 21:35:00,50.0,46.0,-100.00,SSW,193,4.0,7.0,87,0.02,,,0.13,6.000000,,2013-07-03 03:35:00,
2013-07-02 21:55:00,50.0,46.0,-100.00,SSW,193,4.0,7.0,87,0.02,,,0.13,6.000000,,2013-07-03 03:55:00,
2013-07-02 22:33:00,50.0,45.0,-100.00,NW,310,6.0,8.0,83,0.00,,,0.12,0.000000,,2013-07-03 04:33:00,
2013-07-02 22:43:00,50.0,45.0,-100.00,NW,310,6.0,8.0,83,0.00,,,0.12,0.000000,,2013-07-03 04:43:00,
2013-07-02 22:52:00,50.0,45.0,-100.00,NW,310,6.0,8.0,83,0.00,,,0.12,0.000000,,2013-07-03 04:52:00,
2013-07-02 23:23:00,48.0,42.0,-100.00,ESE,121,0.0,9.0,81,0.00,,,0.12,0.000000,,2013-07-03 05:23:00,
2013-07-02 23:36:00,48.0,42.0,-100.00,ESE,121,0.0,9.0,81,0.00,,,0.12,0.000000,,2013-07-03 05:36:00,
2013-07-02 23:45:00,48.0,42.0,-100.00,ESE,121,0.0,9.0,81,0.00,,,0.12,0.000000,,2013-07-03 05:45:00,
2013-07-02 23:55:00,48.0,42.0,-100.00,ESE,121,0.0,9.0,81,0.00,,,0.12,0.000000,,2013-07-03 05:55:00,